CAN3732 MSLP-MZBZ

Flight info

Callsign CAN3732
Flight time 1h 13m
Altitude 25000
Route URNOS2E URNOS UB764 IOS DCT MUSIV MUSIV1A
Aircraft B350/L-SBGRW/S

Departure

Time 2026-04-21 19:02
Airport El Salvador International Airport Saint Óscar Arnulfo Romero y Galdámez (MSLP)

Arrival

Time 2026-04-21 20:16
Airport Philip S. W. Goldson International Airport (MZBZ)
Time Latitude Longitude Altitude Speed Heading
2026-04-21 18:42 13.44087 -89.06588 81 ft 0 kts 340°
2026-04-21 18:52 13.44078 -89.06585 81 ft 2 kts 340°
2026-04-21 18:53 13.44064 -89.06580 82 ft 2 kts 340°
2026-04-21 18:53 13.44050 -89.06574 81 ft 2 kts 340°
2026-04-21 18:53 13.44036 -89.06569 81 ft 2 kts 340°
2026-04-21 18:53 13.44021 -89.06567 81 ft 2 kts 12°
2026-04-21 18:54 13.44013 -89.06578 83 ft 2 kts 80°
2026-04-21 18:54 13.44009 -89.06592 80 ft 2 kts 68°
2026-04-21 18:54 13.44006 -89.06599 82 ft 0 kts 68°
2026-04-21 18:58 13.44015 -89.06558 81 ft 4 kts 111°
2026-04-21 18:58 13.43963 -89.06545 81 ft 13 kts 194°
2026-04-21 18:58 13.43911 -89.06616 84 ft 14 kts 251°
2026-04-21 18:58 13.43873 -89.06725 72 ft 18 kts 247°
2026-04-21 18:59 13.43826 -89.06855 77 ft 18 kts 250°
2026-04-21 18:59 13.43789 -89.06954 74 ft 15 kts 245°
2026-04-21 18:59 13.43700 -89.06989 75 ft 12 kts 163°
2026-04-21 18:59 13.43692 -89.06986 75 ft 0 kts 162°
2026-04-21 19:01 13.43677 -89.06981 75 ft 11 kts 160°
2026-04-21 19:01 13.43623 -89.06897 75 ft 18 kts 77°
2026-04-21 19:02 13.43703 -89.06668 75 ft 71 kts 70°
2026-04-21 19:02 13.43949 -89.05977 113 ft 127 kts 76°
2026-04-21 19:02 13.44233 -89.05034 487 ft 143 kts 77°
2026-04-21 19:02 13.44536 -89.04020 960 ft 157 kts 72°
2026-04-21 19:03 13.44953 -89.02974 1563 ft 161 kts 67°
2026-04-21 19:03 13.45446 -89.01890 2129 ft 172 kts 65°
2026-04-21 19:03 13.45895 -89.00719 2646 ft 181 kts 71°
2026-04-21 19:03 13.46270 -88.99456 3117 ft 192 kts 74°
2026-04-21 19:04 13.46679 -88.98175 3822 ft 185 kts 65°
2026-04-21 19:04 13.47193 -88.96920 4218 ft 196 kts 70°
2026-04-21 19:04 13.47555 -88.95573 4639 ft 200 kts 70°
2026-04-21 19:04 13.48067 -88.94234 5172 ft 198 kts 65°
2026-04-21 19:05 13.48637 -88.92916 5537 ft 205 kts 63°
2026-04-21 19:05 13.49188 -88.91559 5871 ft 214 kts 71°
2026-04-21 19:05 13.49577 -88.90075 6276 ft 216 kts 72°
2026-04-21 19:05 13.50003 -88.88577 6580 ft 223 kts 73°
2026-04-21 19:06 13.50408 -88.87029 6909 ft 223 kts 66°
2026-04-21 19:06 13.51167 -88.85632 7280 ft 223 kts 55°
2026-04-21 19:06 13.52079 -88.84355 7665 ft 225 kts 50°
2026-04-21 19:06 13.53139 -88.83119 7815 ft 234 kts 44°
2026-04-21 19:07 13.54349 -88.81976 8071 ft 238 kts 43°
2026-04-21 19:07 13.55508 -88.80750 8324 ft 241 kts 45°
2026-04-21 19:07 13.56897 -88.79783 8602 ft 244 kts 26°
2026-04-21 19:07 13.58504 -88.79221 8966 ft 244 kts 15°
2026-04-21 19:08 13.60197 -88.79049 9313 ft 247 kts 359°
2026-04-21 19:08 13.61914 -88.79201 9674 ft 249 kts 356°
2026-04-21 19:08 13.63632 -88.79461 10033 ft 251 kts 349°
2026-04-21 19:08 13.65327 -88.79909 10381 ft 252 kts 348°
2026-04-21 19:09 13.67041 -88.80295 10709 ft 252 kts 350°
2026-04-21 19:09 13.68761 -88.80694 11032 ft 253 kts 349°
2026-04-21 19:09 13.70480 -88.81104 11377 ft 254 kts 349°
2026-04-21 19:09 13.72209 -88.81505 11708 ft 255 kts 349°
2026-04-21 19:10 13.73944 -88.81911 12040 ft 257 kts 349°
2026-04-21 19:10 13.75695 -88.82323 12392 ft 260 kts 349°
2026-04-21 19:10 13.77463 -88.82736 12739 ft 262 kts 349°
2026-04-21 19:10 13.79243 -88.83155 13083 ft 263 kts 349°
2026-04-21 19:11 13.81034 -88.83575 13446 ft 265 kts 349°
2026-04-21 19:11 13.82839 -88.83999 13809 ft 267 kts 349°
2026-04-21 19:11 13.84651 -88.84425 14130 ft 268 kts 349°
2026-04-21 19:11 13.86473 -88.84852 14447 ft 269 kts 349°
2026-04-21 19:12 13.87679 -88.85136 14662 ft 269 kts 348°
2026-04-21 19:12 13.90126 -88.85711 15102 ft 270 kts 349°
2026-04-21 19:12 13.91960 -88.86138 15379 ft 272 kts 349°
2026-04-21 19:12 13.93823 -88.86577 15614 ft 276 kts 348°
2026-04-21 19:13 13.95706 -88.87025 15855 ft 279 kts 349°
2026-04-21 19:13 13.97605 -88.87471 16101 ft 281 kts 348°
2026-04-21 19:13 13.99515 -88.87923 16341 ft 282 kts 348°
2026-04-21 19:13 14.01432 -88.88376 16595 ft 283 kts 348°
2026-04-21 19:14 14.03356 -88.88830 16838 ft 284 kts 349°
2026-04-21 19:14 14.05283 -88.89286 17091 ft 284 kts 348°
2026-04-21 19:14 14.07217 -88.89742 17340 ft 284 kts 348°
2026-04-21 19:14 14.09143 -88.90197 17599 ft 284 kts 348°
2026-04-21 19:15 14.11074 -88.90654 17853 ft 284 kts 348°
2026-04-21 19:15 14.12998 -88.91110 18118 ft 284 kts 348°
2026-04-21 19:15 14.14926 -88.91564 18367 ft 284 kts 348°
2026-04-21 19:15 14.16851 -88.92021 18606 ft 283 kts 348°
2026-04-21 19:16 14.18773 -88.92475 18840 ft 284 kts 348°
2026-04-21 19:16 14.20697 -88.92930 19066 ft 284 kts 348°
2026-04-21 19:16 14.22625 -88.93385 19298 ft 284 kts 348°
2026-04-21 19:16 14.24550 -88.93842 19517 ft 284 kts 348°
2026-04-21 19:17 14.28373 -88.94743 19992 ft 284 kts 349°
2026-04-21 19:17 14.30330 -88.94900 20245 ft 283 kts
2026-04-21 19:17 14.32296 -88.94741 20467 ft 283 kts
2026-04-21 19:18 14.34249 -88.94500 20700 ft 282 kts
2026-04-21 19:18 14.36192 -88.94229 20944 ft 282 kts
2026-04-21 19:18 14.38132 -88.93944 21176 ft 281 kts
2026-04-21 19:18 14.40045 -88.93546 21419 ft 280 kts 17°
2026-04-21 19:19 14.41921 -88.93024 21667 ft 279 kts 15°
2026-04-21 19:19 14.43810 -88.92573 21918 ft 279 kts 15°
2026-04-21 19:19 14.45692 -88.92092 22164 ft 278 kts 15°
2026-04-21 19:19 14.47568 -88.91615 22422 ft 278 kts 15°
2026-04-21 19:20 14.49448 -88.91147 22679 ft 277 kts 15°
2026-04-21 19:20 14.51321 -88.90671 22943 ft 278 kts 15°
2026-04-21 19:20 14.53196 -88.90196 23190 ft 278 kts 15°
2026-04-21 19:20 14.55073 -88.89725 23453 ft 277 kts 15°
2026-04-21 19:21 14.56944 -88.89250 23714 ft 277 kts 15°
2026-04-21 19:21 14.58815 -88.88779 23951 ft 276 kts 15°
2026-04-21 19:21 14.60681 -88.88308 24172 ft 276 kts 15°
2026-04-21 19:21 14.62546 -88.87836 24399 ft 276 kts 15°
2026-04-21 19:22 14.64408 -88.87364 24601 ft 276 kts 15°
2026-04-21 19:22 14.66272 -88.86894 24831 ft 275 kts 15°
2026-04-21 19:22 14.68133 -88.86424 25044 ft 276 kts 15°
2026-04-21 19:22 14.70018 -88.85947 25150 ft 282 kts 15°
2026-04-21 19:23 14.71949 -88.85458 25198 ft 289 kts 15°
2026-04-21 19:23 14.73919 -88.84960 25221 ft 294 kts 14°
2026-04-21 19:23 14.75930 -88.84452 25240 ft 300 kts 14°
2026-04-21 19:23 14.77944 -88.83941 25243 ft 304 kts 14°
2026-04-21 19:24 14.80040 -88.83411 25239 ft 307 kts 14°
2026-04-21 19:24 14.82096 -88.82891 25239 ft 310 kts 14°
2026-04-21 19:24 14.84223 -88.82352 25239 ft 311 kts 14°
2026-04-21 19:24 14.86302 -88.81825 25234 ft 313 kts 14°
2026-04-21 19:25 14.88419 -88.81289 25229 ft 314 kts 14°
2026-04-21 19:25 14.90543 -88.80751 25228 ft 314 kts 14°
2026-04-21 19:25 14.92670 -88.80212 25223 ft 315 kts 14°
2026-04-21 19:25 14.94805 -88.79670 25222 ft 316 kts 14°
2026-04-21 19:26 14.96939 -88.79129 25216 ft 316 kts 14°
2026-04-21 19:26 14.99079 -88.78588 25211 ft 316 kts 14°
2026-04-21 19:26 15.01219 -88.78044 25210 ft 317 kts 14°
2026-04-21 19:26 15.03355 -88.77502 25201 ft 317 kts 14°
2026-04-21 19:27 15.05502 -88.76958 25196 ft 317 kts 14°
2026-04-21 19:27 15.07646 -88.76413 25192 ft 317 kts 14°
2026-04-21 19:27 15.09093 -88.76046 25189 ft 317 kts 14°
2026-04-21 19:27 15.11210 -88.75509 25184 ft 317 kts 14°
2026-04-21 19:28 15.13381 -88.74957 25181 ft 317 kts 14°
2026-04-21 19:28 15.15528 -88.74417 25176 ft 318 kts 13°
2026-04-21 19:28 15.17687 -88.73920 25171 ft 318 kts 15°
2026-04-21 19:28 15.19789 -88.73317 25164 ft 318 kts 15°
2026-04-21 19:29 15.21936 -88.72761 25158 ft 318 kts 14°
2026-04-21 19:29 15.24073 -88.72181 25154 ft 318 kts 15°
2026-04-21 19:29 15.26213 -88.71608 25147 ft 318 kts 14°
2026-04-21 19:29 15.28352 -88.71037 25140 ft 318 kts 14°
2026-04-21 19:30 15.30491 -88.70462 25136 ft 317 kts 14°
2026-04-21 19:30 15.32627 -88.69891 25137 ft 317 kts 14°
2026-04-21 19:30 15.34766 -88.69318 25130 ft 317 kts 14°
2026-04-21 19:30 15.36904 -88.68744 25125 ft 317 kts 14°
2026-04-21 19:31 15.39042 -88.68172 25114 ft 317 kts 14°
2026-04-21 19:31 15.41181 -88.67598 25094 ft 317 kts 14°
2026-04-21 19:31 15.43320 -88.67025 25079 ft 317 kts 14°
2026-04-21 19:31 15.45457 -88.66452 25065 ft 317 kts 14°
2026-04-21 19:32 15.47596 -88.65879 25050 ft 317 kts 14°
2026-04-21 19:32 15.49733 -88.65305 25042 ft 317 kts 14°
2026-04-21 19:32 15.51872 -88.64731 25035 ft 317 kts 14°
2026-04-21 19:32 15.54011 -88.64158 25030 ft 317 kts 14°
2026-04-21 19:33 15.56147 -88.63584 25025 ft 317 kts 14°
2026-04-21 19:33 15.58288 -88.63009 25021 ft 317 kts 14°
2026-04-21 19:33 15.60424 -88.62436 25018 ft 317 kts 14°
2026-04-21 19:33 15.62561 -88.61861 25018 ft 317 kts 14°
2026-04-21 19:34 15.64701 -88.61287 25018 ft 318 kts 14°
2026-04-21 19:34 15.66839 -88.60712 25016 ft 318 kts 14°
2026-04-21 19:34 15.68978 -88.60137 25018 ft 318 kts 14°
2026-04-21 19:34 15.71118 -88.59574 25015 ft 317 kts 13°
2026-04-21 19:35 15.73263 -88.59021 25020 ft 317 kts 14°
2026-04-21 19:35 15.77447 -88.57542 25019 ft 318 kts 17°
2026-04-21 19:35 15.79544 -88.56824 25019 ft 318 kts 18°
2026-04-21 19:36 15.81635 -88.56075 25018 ft 318 kts 18°
2026-04-21 19:36 15.83730 -88.55350 25019 ft 318 kts 18°
2026-04-21 19:36 15.85825 -88.54612 25018 ft 318 kts 18°
2026-04-21 19:36 15.87919 -88.53875 25020 ft 318 kts 18°
2026-04-21 19:37 15.90016 -88.53142 25018 ft 318 kts 18°
2026-04-21 19:37 15.92111 -88.52404 25025 ft 318 kts 18°
2026-04-21 19:37 15.94210 -88.51667 25021 ft 318 kts 18°
2026-04-21 19:37 15.96281 -88.50940 25024 ft 318 kts 18°
2026-04-21 19:38 15.98378 -88.50202 25025 ft 318 kts 18°
2026-04-21 19:38 16.00475 -88.49466 25028 ft 318 kts 18°
2026-04-21 19:38 16.02571 -88.48728 25033 ft 318 kts 18°
2026-04-21 19:38 16.04670 -88.47989 25034 ft 318 kts 18°
2026-04-21 19:39 16.06769 -88.47252 25036 ft 318 kts 18°
2026-04-21 19:39 16.08864 -88.46514 25038 ft 318 kts 17°
2026-04-21 19:39 16.10961 -88.45776 25037 ft 318 kts 18°
2026-04-21 19:39 16.13062 -88.45037 25039 ft 318 kts 18°
2026-04-21 19:40 16.15160 -88.44298 25040 ft 318 kts 18°
2026-04-21 19:40 16.17257 -88.43560 25037 ft 318 kts 18°
2026-04-21 19:40 16.19354 -88.42821 25038 ft 318 kts 17°
2026-04-21 19:40 16.21450 -88.42082 25039 ft 318 kts 17°
2026-04-21 19:41 16.23547 -88.41344 25037 ft 318 kts 18°
2026-04-21 19:41 16.25644 -88.40604 25041 ft 318 kts 18°
2026-04-21 19:41 16.27742 -88.39864 25041 ft 318 kts 17°
2026-04-21 19:41 16.29838 -88.39125 25042 ft 318 kts 17°
2026-04-21 19:42 16.31933 -88.38387 25044 ft 318 kts 17°
2026-04-21 19:42 16.34029 -88.37646 25046 ft 318 kts 18°
2026-04-21 19:42 16.36124 -88.36908 25044 ft 318 kts 17°
2026-04-21 19:42 16.38220 -88.36168 25047 ft 318 kts 17°
2026-04-21 19:43 16.40317 -88.35427 25050 ft 318 kts 17°
2026-04-21 19:43 16.42410 -88.34688 25049 ft 318 kts 17°
2026-04-21 19:43 16.44507 -88.33947 25050 ft 318 kts 17°
2026-04-21 19:43 16.46601 -88.33208 25048 ft 318 kts 17°
2026-04-21 19:44 16.48696 -88.32467 25052 ft 318 kts 17°
2026-04-21 19:44 16.50791 -88.31727 25050 ft 318 kts 17°
2026-04-21 19:44 16.52886 -88.30986 25049 ft 318 kts 17°
2026-04-21 19:44 16.54980 -88.30245 25051 ft 318 kts 17°
2026-04-21 19:45 16.57077 -88.29504 25049 ft 318 kts 17°
2026-04-21 19:45 16.59170 -88.28763 25049 ft 318 kts 17°
2026-04-21 19:45 16.61266 -88.28022 25050 ft 318 kts 17°
2026-04-21 19:45 16.63363 -88.27279 25053 ft 318 kts 17°
2026-04-21 19:46 16.65460 -88.26538 25053 ft 318 kts 17°
2026-04-21 19:46 16.67556 -88.25795 25054 ft 318 kts 17°
2026-04-21 19:46 16.69652 -88.25052 25054 ft 318 kts 17°
2026-04-21 19:46 16.71747 -88.24311 25057 ft 318 kts 17°
2026-04-21 19:47 16.73843 -88.23567 25055 ft 318 kts 17°
2026-04-21 19:47 16.75911 -88.22835 25056 ft 318 kts 17°
2026-04-21 19:47 16.78009 -88.22091 25054 ft 318 kts 17°
2026-04-21 19:47 16.80131 -88.21338 25059 ft 318 kts 17°
2026-04-21 19:48 16.82201 -88.20604 25061 ft 318 kts 17°
2026-04-21 19:48 16.84297 -88.19870 25058 ft 318 kts 14°
2026-04-21 19:48 16.86464 -88.19485 25061 ft 315 kts
2026-04-21 19:48 16.88633 -88.19662 25061 ft 312 kts 346°
2026-04-21 19:49 16.90702 -88.20329 25060 ft 311 kts 337°
2026-04-21 19:49 16.92704 -88.21180 25064 ft 310 kts 333°
2026-04-21 19:49 16.94575 -88.22283 25064 ft 309 kts 326°
2026-04-21 19:49 16.96416 -88.23435 25074 ft 309 kts 330°
2026-04-21 19:50 16.97666 -88.24150 25070 ft 310 kts 329°
2026-04-21 19:50 17.00157 -88.25664 25068 ft 310 kts 328°
2026-04-21 19:50 17.02031 -88.26773 25069 ft 310 kts 328°
2026-04-21 19:50 17.03899 -88.27896 25069 ft 310 kts 328°
2026-04-21 19:51 17.05770 -88.29020 25006 ft 312 kts 328°
2026-04-21 19:51 17.07686 -88.30165 24677 ft 319 kts 328°
2026-04-21 19:51 17.09589 -88.31311 24347 ft 313 kts 328°
2026-04-21 19:51 17.11466 -88.32436 24010 ft 308 kts 329°
2026-04-21 19:52 17.13313 -88.33549 23686 ft 304 kts 327°
2026-04-21 19:52 17.14949 -88.34911 23299 ft 298 kts 312°
2026-04-21 19:52 17.16163 -88.36632 22892 ft 291 kts 298°
2026-04-21 19:52 17.16880 -88.38581 22487 ft 286 kts 283°
2026-04-21 19:53 17.17065 -88.40630 22083 ft 282 kts 268°
2026-04-21 19:53 17.16713 -88.42632 21691 ft 280 kts 252°
2026-04-21 19:53 17.15905 -88.44473 21298 ft 278 kts 242°
2026-04-21 19:53 17.14938 -88.46218 20913 ft 277 kts 237°
2026-04-21 19:54 17.13668 -88.47709 20536 ft 276 kts 220°
2026-04-21 19:54 17.12047 -88.48775 20159 ft 276 kts 204°
2026-04-21 19:54 17.10210 -88.49330 19792 ft 275 kts 188°
2026-04-21 19:54 17.08303 -88.49333 19424 ft 275 kts 172°
2026-04-21 19:55 17.06474 -88.48786 19062 ft 274 kts 155°
2026-04-21 19:55 17.04839 -88.47781 18702 ft 273 kts 145°
2026-04-21 19:55 17.03321 -88.46644 18345 ft 272 kts 143°
2026-04-21 19:55 17.01780 -88.45468 17932 ft 270 kts 146°
2026-04-21 19:56 17.00196 -88.44414 17530 ft 270 kts 148°
2026-04-21 19:56 16.98611 -88.43418 17131 ft 269 kts 149°
2026-04-21 19:56 16.97003 -88.42428 16735 ft 268 kts 149°
2026-04-21 19:56 16.95375 -88.41434 16342 ft 267 kts 149°
2026-04-21 19:57 16.93797 -88.40475 15955 ft 265 kts 149°
2026-04-21 19:57 16.92211 -88.39512 15578 ft 263 kts 149°
2026-04-21 19:57 16.90638 -88.38556 15200 ft 261 kts 149°
2026-04-21 19:57 16.89099 -88.37567 14829 ft 259 kts 142°
2026-04-21 19:58 16.87850 -88.36229 14465 ft 258 kts 125°
2026-04-21 19:58 16.87041 -88.34568 14103 ft 257 kts 108°
2026-04-21 19:58 16.86743 -88.32740 13722 ft 256 kts 91°
2026-04-21 19:58 16.86977 -88.30902 13313 ft 256 kts 73°
2026-04-21 19:59 16.87696 -88.29214 12911 ft 255 kts 60°
2026-04-21 19:59 16.88615 -88.27633 12504 ft 254 kts 57°
2026-04-21 19:59 16.89661 -88.26174 12118 ft 251 kts 39°
2026-04-21 19:59 16.91252 -88.25534 11741 ft 248 kts
2026-04-21 20:00 16.92871 -88.26051 11382 ft 246 kts 328°
2026-04-21 20:00 16.94254 -88.27078 11128 ft 241 kts 323°
2026-04-21 20:00 16.95556 -88.28155 10888 ft 236 kts 322°
2026-04-21 20:00 16.96813 -88.29239 10648 ft 232 kts 321°
2026-04-21 20:01 16.98040 -88.30315 10444 ft 229 kts 322°
2026-04-21 20:01 16.99336 -88.31255 10235 ft 225 kts 332°
2026-04-21 20:01 17.00803 -88.31787 10016 ft 223 kts 351°
2026-04-21 20:01 17.02343 -88.31936 9741 ft 222 kts 358°
2026-04-21 20:02 17.03878 -88.31939 9484 ft 220 kts
2026-04-21 20:02 17.05419 -88.31902 9250 ft 224 kts
2026-04-21 20:02 17.06991 -88.31849 9007 ft 228 kts
2026-04-21 20:02 17.08588 -88.31909 8766 ft 231 kts 352°
2026-04-21 20:03 17.10158 -88.32287 8492 ft 231 kts 344°
2026-04-21 20:03 17.11669 -88.32851 8321 ft 230 kts 340°
2026-04-21 20:03 17.13146 -88.33494 8104 ft 229 kts 338°
2026-04-21 20:03 17.14553 -88.34258 7864 ft 227 kts 330°
2026-04-21 20:04 17.15890 -88.35113 7677 ft 224 kts 332°
2026-04-21 20:04 17.17238 -88.35901 7498 ft 220 kts 332°
2026-04-21 20:04 17.18560 -88.36690 7319 ft 217 kts 332°
2026-04-21 20:04 17.19847 -88.37472 7175 ft 212 kts 332°
2026-04-21 20:05 17.21119 -88.38234 7050 ft 209 kts 332°
2026-04-21 20:05 17.22383 -88.38989 6923 ft 208 kts 332°
2026-04-21 20:05 17.23634 -88.39744 6788 ft 207 kts 333°
2026-04-21 20:05 17.24884 -88.40495 6665 ft 207 kts 332°
2026-04-21 20:06 17.26132 -88.41244 6536 ft 207 kts 332°
2026-04-21 20:06 17.27350 -88.42048 6388 ft 209 kts 319°
2026-04-21 20:06 17.28206 -88.43288 6251 ft 211 kts 305°
2026-04-21 20:06 17.29027 -88.44562 6099 ft 210 kts 315°
2026-04-21 20:07 17.30242 -88.45292 5947 ft 205 kts 342°
2026-04-21 20:07 17.31608 -88.45785 5779 ft 204 kts 344°
2026-04-21 20:07 17.32469 -88.46151 5671 ft 202 kts 329°
2026-04-21 20:07 17.33709 -88.47608 5472 ft 200 kts 311°
2026-04-21 20:08 17.34448 -88.48800 5358 ft 201 kts 287°
2026-04-21 20:08 17.34472 -88.50257 5204 ft 201 kts 274°
2026-04-21 20:08 17.35024 -88.51529 5073 ft 194 kts 322°
2026-04-21 20:08 17.36246 -88.51923 4918 ft 185 kts 12°
2026-04-21 20:09 17.37425 -88.51420 4795 ft 184 kts 27°
2026-04-21 20:09 17.38590 -88.50849 4631 ft 185 kts 25°
2026-04-21 20:09 17.39838 -88.50513 4479 ft 187 kts
2026-04-21 20:09 17.41145 -88.50476 4315 ft 188 kts
2026-04-21 20:10 17.42448 -88.50577 4153 ft 188 kts 356°
2026-04-21 20:10 17.43732 -88.50845 4013 ft 188 kts 348°
2026-04-21 20:10 17.44997 -88.51187 3864 ft 188 kts 350°
2026-04-21 20:10 17.46270 -88.51477 3718 ft 188 kts 350°
2026-04-21 20:11 17.47553 -88.51782 3579 ft 190 kts 350°
2026-04-21 20:11 17.48822 -88.51699 3409 ft 184 kts 31°
2026-04-21 20:11 17.49540 -88.50659 3267 ft 180 kts 76°
2026-04-21 20:11 17.49806 -88.49380 3101 ft 180 kts 77°
2026-04-21 20:12 17.50088 -88.48112 2923 ft 179 kts 76°
2026-04-21 20:12 17.50370 -88.46842 2725 ft 178 kts 77°
2026-04-21 20:12 17.50556 -88.46011 2611 ft 178 kts 77°
2026-04-21 20:12 17.50920 -88.44340 2347 ft 172 kts 77°
2026-04-21 20:13 17.51184 -88.43150 2151 ft 164 kts 78°
2026-04-21 20:13 17.51440 -88.42009 1963 ft 158 kts 77°
2026-04-21 20:13 17.51683 -88.40900 1756 ft 153 kts 78°
2026-04-21 20:13 17.51839 -88.40189 1636 ft 149 kts 78°
2026-04-21 20:14 17.52072 -88.39154 1484 ft 144 kts 77°
2026-04-21 20:14 17.52313 -88.38146 1356 ft 141 kts 79°
2026-04-21 20:14 17.52497 -88.37157 1111 ft 133 kts 77°
2026-04-21 20:14 17.52712 -88.36240 836 ft 125 kts 77°
2026-04-21 20:15 17.52893 -88.35412 616 ft 114 kts 76°
2026-04-21 20:15 17.53124 -88.34342 588 ft 117 kts 76°
2026-04-21 20:15 17.53260 -88.33761 528 ft 124 kts 75°
2026-04-21 20:15 17.53443 -88.32905 284 ft 114 kts 76°
2026-04-21 20:16 17.53617 -88.32114 111 ft 113 kts 77°
2026-04-21 20:16 17.53796 -88.31326 27 ft 99 kts 75°
2026-04-21 20:16 17.53913 -88.30817 20 ft 39 kts 79°
2026-04-21 20:16 17.53934 -88.30637 21 ft 8 kts 56°
2026-04-21 20:17 17.53943 -88.30706 24 ft 21 kts 250°
2026-04-21 20:17 17.53897 -88.30857 20 ft 21 kts 234°
2026-04-21 20:17 17.53842 -88.30868 20 ft 0 kts 171°
2026-04-21 20:18 17.53837 -88.30867 20 ft 6 kts 170°
2026-04-21 20:18 17.53760 -88.30850 20 ft 13 kts 173°
2026-04-21 20:18 17.53698 -88.30904 20 ft 15 kts 190°
2026-04-21 20:18 17.53678 -88.30899 20 ft 5 kts 136°
2026-04-21 20:19 17.53674 -88.30886 20 ft 0 kts 75°